Theta_e
333 334 333 336 338 336 333 334 335 339 337 335 335 335 334 333 332 331 327 326 325 326 326 326 323 323 324 326 327 326 325 325 326 327 328 329 331 333 339 340 340 341 341 340 339 339 337 336 335 334 333 331 330 329 328 328 328 328 329 330 328 331 333 335 335 334 334 333 332 330 328 327 327 326 326 326 325 324 323 323 324 323 323 322 322
332 332 332 335 334 330 329 330 333 335 335 334 333 334 333 331 328 326 326 324 326 326 327 325 324 324 324 326 326 327 327 326 325 326 328 329 330 332 337 340 339 339 340 340 340 339 338 337 335 334 333 332 331 330 329 329 328 328 329 330 328 331 333 334 335 334 333 333 330 329 328 327 326 326 325 325 325 324 324 322 322 323 322 322 321
332 330 330 330 331 330 329 330 331 330 333 334 332 332 330 329 328 327 325 325 326 325 326 325 324 324 324 326 326 327 327 327 326 326 327 329 330 331 333 340 339 337 338 338 340 339 339 337 336 335 333 332 331 330 329 328 328 328 329 330 328 330 332 333 335 334 333 332 331 330 328 327 327 325 325 324 324 324 323 323 323 322 322 321 321
329 328 329 329 330 332 331 329 329 331 332 332 333 332 331 330 329 328 327 327 326 326 326 326 325 325 324 324 326 327 327 327 327 326 327 329 329 331 332 335 340 337 337 337 338 340 339 338 337 336 334 333 332 330 330 329 328 328 328 330 329 329 331 333 335 334 333 332 332 330 328 327 326 325 324 323 323 322 322 322 322 322 322 321 321
329 330 331 330 330 330 330 332 330 331 331 332 334 333 332 330 330 330 327 327 326 326 327 326 325 325 325 325 325 326 327 327 327 327 327 328 329 330 331 333 336 338 336 338 337 337 340 339 338 337 335 334 333 331 331 330 328 327 328 330 329 329 331 332 335 334 332 331 331 330 329 327 326 326 325 324 323 322 322 321 321 321 321 321 321
331 331 331 330 330 332 332 333 331 331 331 330 330 331 330 330 329 329 332 327 326 326 327 326 327 326 326 325 325 326 326 326 327 327 327 327 329 330 331 332 334 336 336 338 338 336 336 339 338 338 336 335 334 333 333 331 330 327 327 329 329 328 331 332 334 335 332 331 331 330 329 327 326 324 324 323 322 322 321 320 320 320 320 320 319
331 331 331 331 330 330 331 334 333 331 330 330 330 329 330 330 330 329 329 328 327 327 328 326 326 326 327 327 325 324 325 326 326 326 326 327 328 329 330 331 333 333 334 334 338 337 335 337 340 339 337 336 335 334 334 332 331 330 328 328 330 328 330 332 333 335 333 332 331 330 329 327 326 325 324 323 323 322 321 320 320 319 320 319 319
333 332 330 330 331 331 331 332 332 333 333 332 331 329 329 330 330 330 329 329 328 328 326 326 327 327 328 326 324 324 323 324 325 326 326 327 327 328 329 330 332 332 334 333 333 336 336 335 336 338 339 337 336 336 335 334 332 331 330 329 330 330 329 331 334 335 334 333 332 331 329 327 326 325 323 323 322 322 321 321 320 319 319 319 318
332 333 331 331 331 330 332 332 332 332 332 333 331 330 329 329 329 330 330 328 328 328 328 327 328 328 329 328 325 323 322 323 324 326 326 325 326 327 328 329 331 334 334 333 332 332 334 336 336 335 336 337 337 336 336 336 334 333 332 330 329 331 329 330 332 334 335 333 332 330 329 328 326 325 324 323 322 322 321 320 320 320 319 319 318
330 333 332 332 332 331 331 330 330 331 331 331 331 331 330 329 327 329 330 328 327 328 327 327 328 328 329 328 328 323 322 322 323 328 326 325 325 326 327 329 330 331 332 332 331 331 332 334 335 334 335 334 336 337 337 337 336 335 334 332 330 331 332 331 330 332 335 334 332 331 329 328 326 325 324 323 323 322 321 320 320 320 319 318 318
322 325 327 331 331 331 329 329 330 330 329 329 329 329 329 329 328 328 330 330 330 329 329 328 328 326 326 327 328 328 324 322 323 325 325 326 326 326 326 328 328 329 330 331 331 330 330 331 333 335 335 334 335 337 337 336 336 336 334 334 333 331 332 332 330 332 336 335 333 331 329 328 326 325 324 323 323 322 322 321 320 319 319 318 318
317 319 322 325 327 329 330 330 329 328 327 327 327 328 328 328 327 328 328 329 330 329 330 328 327 326 326 327 327 327 325 323 321 322 325 326 326 327 327 327 327 328 328 329 330 329 329 329 331 332 332 333 334 334 336 335 335 336 336 335 334 332 332 332 330 332 335 336 334 332 329 328 326 325 324 324 323 322 322 321 320 319 319 318 318
318 317 316 321 319 324 329 330 330 328 327 327 328 328 328 327 328 328 328 326 327 330 330 329 326 324 322 323 325 325 326 324 321 321 323 325 327 327 327 327 327 327 328 328 328 328 328 328 329 330 331 331 332 333 332 332 333 335 335 335 335 334 332 332 332 331 332 336 334 333 330 328 327 326 325 324 323 323 322 320 320 319 319 318 317
318 316 316 316 320 323 326 329 329 329 328 328 328 328 326 326 327 326 328 327 325 328 329 327 322 321 319 317 320 323 323 324 323 321 321 323 326 326 327 326 326 327 327 327 327 327 327 327 328 328 329 329 329 333 334 334 333 334 336 335 336 335 332 332 332 331 331 334 335 333 331 329 327 326 325 324 323 323 322 321 320 319 318 318 318
316 318 315 315 316 319 321 324 325 326 325 325 325 325 325 325 326 325 324 327 326 329 328 328 321 322 321 319 315 315 320 321 321 322 322 322 324 325 326 326 326 327 327 327 326 326 326 327 327 327 327 328 328 330 332 332 332 332 334 335 335 335 334 333 333 332 330 332 335 333 331 330 328 326 325 324 323 323 321 321 320 319 318 318 318
314 315 314 314 314 314 315 316 318 320 319 317 318 319 322 324 325 325 325 321 324 324 328 328 326 323 316 317 316 313 313 316 317 322 321 321 321 322 325 326 327 327 327 326 326 326 326 326 326 326 327 327 328 328 330 331 331 330 329 333 334 334 335 334 334 334 332 332 335 334 332 331 329 327 326 325 324 323 322 321 320 319 319 318 318
312 314 316 313 313 314 314 314 314 314 315 314 314 315 316 318 320 321 322 321 320 324 325 328 328 328 323 318 315 313 314 316 318 319 321 323 321 321 322 323 325 327 327 327 327 327 327 325 326 326 327 327 327 327 329 330 331 332 331 331 332 333 335 335 335 334 333 332 336 336 334 332 330 328 326 325 324 323 322 321 320 320 319 318 318
310 312 316 314 312 312 313 313 313 313 313 313 313 314 314 314 315 316 317 320 321 319 318 322 325 327 327 325 323 318 317 320 319 314 321 321 324 323 321 323 322 324 327 327 328 328 328 327 327 326 326 326 327 327 327 328 330 330 332 331 329 329 327 330 336 336 335 334 333 337 334 333 331 328 327 326 324 324 322 321 321 320 319 319 318
310 309 312 313 311 311 312 313 313 313 315 312 311 312 313 313 315 314 314 316 317 314 315 317 321 322 322 325 325 325 325 320 316 318 315 320 322 324 324 324 322 321 321 323 326 328 329 328 328 326 326 326 326 326 327 327 328 329 329 328 326 326 323 322 326 335 335 335 333 336 336 335 332 329 327 326 325 324 323 322 321 321 320 319 318
309 309 310 313 310 309 310 311 312 312 313 310 310 310 311 312 313 312 313 314 314 313 312 314 314 315 319 320 323 325 326 325 324 320 318 315 318 325 325 325 326 326 325 323 322 324 326 328 327 327 327 326 326 326 326 326 327 328 329 326 324 325 323 322 319 319 326 334 335 334 337 335 333 330 328 327 325 324 323 323 321 321 320 320 319
308 309 309 314 315 309 309 309 310 311 313 309 309 309 308 308 309 309 310 311 313 313 312 312 313 314 315 315 319 319 321 324 325 324 319 316 316 317 318 323 325 326 326 325 326 325 325 325 326 327 328 328 327 326 326 326 327 327 327 324 324 323 322 321 317 318 317 324 332 334 336 337 336 333 330 328 326 325 323 323 321 321 320 319 319
306 307 308 308 309 310 309 310 310 312 312 308 308 308 308 308 308 309 309 309 310 312 312 311 313 313 314 315 313 314 315 319 319 317 319 321 315 315 318 318 317 322 324 325 326 328 327 325 325 325 327 328 328 327 327 326 327 326 325 323 322 322 321 319 315 314 315 320 328 332 334 336 337 335 333 330 328 326 325 324 323 323 322 320 319
304 306 306 308 312 313 310 310 312 314 310 308 308 308 308 308 308 308 308 308 308 309 310 310 311 311 312 313 313 314 313 312 313 315 315 314 313 314 316 317 317 317 322 325 325 326 327 327 325 324 325 326 327 327 327 327 326 324 323 323 322 321 319 318 317 315 315 322 328 331 334 335 336 335 333 331 330 328 326 325 324 323 322 321 321
305 306 306 308 310 309 311 309 309 307 308 308 308 308 308 308 308 309 308 308 309 309 307 308 308 309 310 311 312 313 314 314 314 315 314 313 313 312 313 316 317 319 321 323 325 325 326 326 326 326 326 325 326 327 328 327 327 324 323 322 321 318 317 317 317 317 314 320 324 329 333 334 335 336 336 334 332 330 328 327 325 324 323 322 321
306 307 306 306 309 307 307 308 308 309 307 307 307 307 307 308 308 307 307 308 308 307 307 307 307 308 309 310 312 313 313 314 315 315 316 316 314 312 313 316 313 315 318 320 320 323 325 325 326 326 326 326 325 325 326 327 327 324 321 322 319 318 316 316 315 314 313 312 317 323 327 332 334 336 335 334 332 331 329 326 322 318 318 320 320
304 306 305 306 308 309 308 307 307 309 309 307 308 308 307 307 307 307 306 307 307 307 307 307 307 307 308 309 309 310 311 313 314 314 314 314 312 311 311 313 314 313 316 319 320 318 321 323 325 325 325 325 325 325 326 326 327 322 321 324 322 317 316 314 313 314 311 311 311 313 317 322 327 330 331 332 330 324 320 318 315 314 312 314 318
304 305 307 307 307 306 307 306 306 307 307 307 307 306 307 307 308 306 307 306 306 307 305 306 306 306 307 307 309 309 309 310 312 313 314 314 314 313 312 308 309 312 311 316 317 317 317 321 324 325 326 326 326 327 326 326 325 321 319 325 327 318 314 314 314 313 312 311 310 311 312 314 317 320 320 320 320 320 321 319 315 313 312 312 313
303 306 306 307 307 308 308 305 305 306 307 306 305 306 306 307 305 305 305 309 306 305 305 305 306 306 306 307 307 307 308 309 311 312 313 315 315 316 314 312 308 305 310 309 312 313 318 318 321 324 325 326 326 325 324 322 325 320 323 326 327 324 315 313 312 312 311 311 310 309 310 311 312 313 317 318 321 321 320 318 315 313 312 312 312
304 306 306 305 306 306 305 305 305 304 304 305 305 305 305 305 305 304 304 304 307 305 305 305 306 306 306 306 306 307 308 309 310 311 312 313 315 315 316 314 312 307 306 306 308 311 315 320 316 321 323 324 325 324 324 323 321 322 325 326 326 327 319 314 312 311 311 309 308 308 308 309 310 311 315 319 320 320 319 316 314 312 313 314 312
306 307 306 305 306 310 305 304 303 303 304 304 304 304 305 305 304 304 304 305 304 305 306 307 305 306 307 306 306 306 307 307 308 309 310 311 312 313 314 315 316 310 308 306 306 312 313 318 319 319 322 324 325 326 325 324 318 319 323 324 326 326 317 313 311 311 311 310 309 309 309 309 309 310 313 318 319 318 316 315 312 312 314 314 311
307 306 304 306 306 304 303 302 303 303 302 303 304 303 303 303 305 304 303 303 303 303 303 305 306 306 305 304 304 305 306 306 307 308 309 309 310 311 312 313 313 314 312 310 304 310 318 316 319 321 322 323 324 325 325 326 323 322 323 324 324 318 316 317 311 311 311 310 310 309 311 311 309 309 312 316 318 317 316 315 315 313 313 312 310
306 306 305 305 305 303 302 303 302 301 302 302 302 302 301 301 302 301 302 302 302 302 302 303 303 303 302 302 303 304 305 305 305 306 306 307 308 309 309 310 312 313 313 311 307 306 313 314 316 320 323 322 324 323 324 325 324 318 324 323 324 316 320 324 311 309 310 309 309 309 308 309 309 309 309 311 315 316 315 315 314 312 312 311 310
306 305 305 305 304 303 302 305 302 302 301 301 301 300 301 300 300 300 300 301 300 301 303 301 301 301 302 301 302 302 303 303 304 305 305 306 306 307 308 309 309 311 312 310 307 306 309 316 318 319 322 322 321 324 323 324 325 325 320 322 323 323 323 323 323 310 307 308 307 307 307 308 309 309 307 308 312 313 312 312 312 310 310 310 308
305 305 305 304 304 303 302 302 301 301 300 300 299 300 300 299 299 301 300 299 299 299 300 300 300 301 301 300 301 302 302 302 303 303 304 305 305 305 306 307 307 307 310 308 308 306 305 310 313 317 319 321 319 323 321 321 322 324 323 324 322 321 321 323 322 323 308 308 306 306 307 307 306 306 307 306 308 310 311 310 310 308 309 308 307
305 305 304 304 303 302 302 301 300 300 300 299 299 299 299 299 299 298 300 299 299 299 299 299 299 300 300 300 300 301 302 302 302 303 303 304 305 304 305 306 306 306 307 308 307 305 306 307 312 312 316 318 318 318 321 322 322 322 321 323 323 323 321 321 321 321 310 306 305 306 306 306 306 305 306 307 307 308 308 308 308 307 306 305 305
304 304 304 303 302 302 302 301 300 299 299 299 298 298 299 298 298 298 298 298 298 299 299 299 298 299 299 298 299 299 301 300 301 301 302 303 303 304 304 305 305 306 307 308 308 305 305 304 307 309 312 312 315 319 319 321 320 321 321 322 322 321 322 320 319 319 315 307 304 305 306 306 305 305 305 306 307 307 307 308 307 306 305 305 304
304 303 303 302 302 301 302 301 300 299 298 298 298 298 298 298 298 298 298 298 298 298 298 298 301 300 298 298 298 298 299 299 299 299 300 300 301 302 302 303 303 303 304 305 305 306 304 302 303 307 310 310 312 314 317 317 318 319 319 319 321 320 320 319 317 317 310 307 305 305 305 305 305 305 305 306 306 306 306 307 307 306 305 305 304
303 303 303 302 303 301 301 300 299 299 298 298 298 298 297 298 297 297 298 298 298 297 297 297 297 297 297 297 297 298 298 297 297 298 299 299 299 300 300 300 301 301 302 302 303 304 304 303 303 302 305 306 307 310 314 317 316 315 316 318 318 317 316 317 317 316 316 315 314 312 306 305 305 304 305 305 306 306 306 306 306 306 305 305 304
303 302 302 302 303 301 300 299 299 299 298 297 297 296 297 296 296 296 295 295 295 295 296 296 296 296 296 296 297 297 297 297 297 297 298 298 298 299 300 300 300 300 300 300 301 301 301 301 301 302 303 305 307 306 311 314 315 316 315 314 314 318 316 315 316 316 313 314 310 306 308 308 308 308 306 305 306 306 306 305 306 306 305 304 303
303 302 302 302 302 300 299 299 298 298 297 296 295 295 296 296 297 296 295 296 295 295 295 295 295 295 296 296 296 297 297 297 297 297 297 297 298 298 299 299 299 298 298 298 299 299 299 300 300 299 301 301 304 307 309 310 310 311 314 314 312 314 316 317 315 315 312 311 314 314 308 307 306 306 304 304 304 305 305 305 306 306 305 303 302
303 302 302 301 300 297 297 297 297 296 296 296 296 295 295 294 294 294 294 294 294 294 294 294 294 295 295 295 296 296 298 299 299 299 299 299 299 297 298 298 297 297 297 297 297 298 298 297 298 299 299 300 301 302 303 304 305 306 311 314 313 315 316 315 315 314 314 314 313 311 311 312 311 311 311 311 311 307 308 306 308 306 304 302 301
302 301 300 299 299 297 295 295 295 295 295 296 300 296 296 296 295 294 294 294 294 293 294 294 294 294 294 295 296 298 298 298 298 296 295 295 297 298 298 297 297 296 296 296 295 296 296 295 295 297 296 297 299 301 301 304 307 309 309 309 309 312 312 311 313 314 313 313 312 312 313 312 311 311 311 311 313 311 312 310 311 309 305 301 301
301 300 299 297 295 295 294 294 294 294 294 296 293 292 292 293 295 294 293 293 293 293 293 292 292 293 294 294 294 295 297 297 297 295 294 294 294 294 295 296 297 297 295 295 295 296 295 295 295 295 295 296 297 300 301 303 305 307 307 308 309 310 309 308 307 311 310 312 311 310 312 312 312 310 310 311 312 311 311 311 306 304 304 302 301
300 299 297 295 294 294 293 293 293 293 294 295 292 292 292 292 293 295 292 292 292 292 292 292 292 292 292 293 293 294 295 295 295 295 295 294 293 293 293 292 292 293 294 296 295 294 295 294 294 295 295 295 296 299 299 301 303 305 307 307 307 308 307 307 308 308 311 310 310 309 310 311 310 311 310 311 312 311 311 309 304 303 303 302 301
298 296 294 293 293 293 293 292 292 294 293 293 292 292 292 291 291 292 291 291 291 291 291 291 291 291 292 292 292 293 293 295 295 295 295 295 294 294 294 294 293 293 291 291 292 296 296 294 293 293 294 295 295 297 300 301 304 303 304 305 307 308 308 308 309 310 307 307 309 308 308 310 307 307 308 311 311 311 310 304 302 302 302 301 300
295 293 293 292 292 292 292 292 292 291 291 293 292 292 291 290 290 290 291 290 290 290 291 291 291 291 291 291 291 291 292 293 293 293 293 293 293 293 294 294 294 294 293 292 291 291 293 295 294 293 295 297 295 298 300 302 301 301 303 304 306 306 305 305 306 305 306 307 308 308 306 307 305 307 306 309 310 309 309 306 301 300 300 300 300
293 293 292 291 292 292 292 290 290 290 291 293 291 290 290 290 290 290 290 290 290 290 290 290 290 290 291 291 291 291 291 291 292 293 292 292 292 292 292 292 293 293 293 294 294 295 295 295 295 295 296 297 297 298 300 302 303 304 305 305 305 305 304 304 304 304 305 307 308 309 305 310 303 305 306 308 308 307 306 301 299 299 299 299 298
292 292 291 292 291 290 290 289 290 289 288 290 290 290 290 289 290 291 289 289 289 289 289 290 290 290 290 290 290 290 290 290 291 290 291 292 291 290 290 290 291 291 292 293 293 294 295 295 296 296 296 298 296 298 299 300 301 302 303 303 303 301 300 299 299 302 302 305 307 308 306 308 303 305 306 305 305 303 302 302 297 299 298 298 297
291 291 291 290 290 289 289 289 287 287 286 289 289 290 289 289 290 289 288 288 288 288 288 289 289 289 290 290 290 290 290 290 290 289 289 290 290 289 289 289 289 290 290 292 292 292 292 292 292 292 292 292 293 293 293 294 297 300 300 299 298 300 297 296 297 299 300 303 304 307 308 307 304 303 303 298 300 300 299 299 299 297 297 297 296
291 290 290 289 288 288 289 288 287 287 286 287 290 290 289 289 290 289 288 288 287 287 287 288 289 289 289 291 292 291 291 291 290 289 289 290 289 289 288 288 287 287 288 291 291 292 292 292 291 291 291 291 292 292 292 293 293 295 298 295 297 297 295 296 294 297 300 303 303 306 304 306 302 302 300 295 297 298 298 297 297 298 296 296 295
291 290 290 288 288 287 287 287 293 288 286 288 290 289 289 289 290 289 288 287 287 287 287 287 288 288 289 290 291 291 290 290 289 289 289 289 289 288 288 287 286 286 287 289 289 289 290 290 291 292 292 293 294 295 296 293 293 294 296 297 297 296 294 294 295 296 296 299 303 307 304 303 302 302 300 296 295 296 295 296 296 296 297 296 296
Wind_Speed
5 5 4 5 4 3 2 1 1 2 3 3 3 3 2 2 2 3 3 2 2 1 2 2 2 2 3 3 3 3 3 3 4 4 4 4 4 5 9 9 8 8 10 10 10 10 10 9 9 9 9 9 8 7 6 6 5 5 4 4 2 1 4 4 9 8 8 8 8 8 8 8 9 9 9 10 10 10 10 10 11 11 11 12 12
5 4 4 3 3 5 4 3 4 2 0 2 2 2 3 2 3 3 3 3 2 2 2 2 2 3 3 4 3 3 3 3 4 4 4 4 4 4 9 9 9 9 9 10 11 11 11 10 9 8 8 8 8 7 7 6 6 6 5 4 2 0 3 3 9 8 8 9 8 7 8 8 9 9 9 9 10 10 10 10 10 11 11 11 11
3 3 2 1 5 3 4 5 2 4 3 1 2 2 2 3 4 4 4 4 3 2 2 3 3 3 4 4 4 3 4 4 3 3 4 5 5 5 5 10 10 9 9 8 9 11 11 10 10 9 8 8 7 6 6 6 5 6 5 5 3 2 1 3 7 8 8 9 8 7 8 8 8 9 9 9 10 10 10 9 10 10 10 10 10
3 4 3 3 2 4 1 0 4 2 1 1 2 3 4 4 4 3 4 3 3 3 2 3 3 3 4 4 4 4 4 4 4 4 4 4 5 5 5 5 8 10 10 9 9 9 11 11 11 10 9 8 8 7 7 6 6 5 6 5 4 3 2 4 3 8 8 8 8 8 8 7 8 9 9 9 10 10 10 9 9 9 9 9 10
6 4 3 5 5 2 1 1 5 7 6 4 4 5 4 4 2 2 3 2 2 3 2 2 3 2 2 3 4 5 4 4 5 4 5 5 5 5 5 5 4 8 10 9 10 9 9 11 11 10 8 9 8 8 8 6 6 6 6 6 5 4 4 3 2 9 7 7 8 8 8 7 8 9 9 9 9 10 10 9 9 9 9 9 9
5 3 4 2 3 3 3 4 5 4 4 5 3 1 2 3 2 2 1 1 1 2 3 4 3 3 3 3 4 5 4 4 5 5 4 5 4 5 5 4 4 4 5 9 10 10 9 9 11 11 10 9 9 10 9 7 7 7 7 6 5 5 5 5 4 9 8 7 8 7 7 7 8 9 9 9 9 9 9 9 9 9 9 8 8
5 4 4 1 3 3 4 4 2 4 4 4 5 2 1 2 3 2 1 1 2 3 3 3 4 4 4 3 4 3 4 5 5 5 5 5 4 5 4 4 5 4 4 4 6 10 10 9 10 11 11 11 10 11 10 8 8 7 7 7 7 6 7 6 6 8 8 8 9 8 7 7 8 8 9 9 9 9 10 9 9 9 8 8 8
3 4 3 3 3 4 3 1 1 1 3 5 5 5 5 5 5 4 3 2 2 2 2 3 4 5 5 5 4 4 4 4 5 5 5 4 5 5 5 4 4 5 4 4 4 5 10 10 10 9 10 12 12 12 11 10 9 8 8 8 8 8 8 7 7 6 9 9 9 8 8 7 7 8 9 9 9 9 9 9 9 9 9 8 8
3 3 3 3 4 4 1 2 1 0 2 3 5 4 6 5 3 4 4 1 1 2 2 3 4 5 5 6 5 4 4 5 5 5 3 5 5 5 5 6 5 6 5 5 5 4 6 10 10 9 10 11 12 13 12 11 10 10 10 9 10 10 9 9 9 6 9 10 9 8 8 8 7 7 8 9 9 9 9 9 9 9 9 9 8
2 3 3 2 3 1 2 4 3 3 2 4 5 4 4 4 4 3 4 4 3 3 2 1 2 4 5 6 7 4 5 5 5 4 4 5 5 6 7 6 5 6 5 5 6 5 5 7 10 11 11 11 11 13 13 12 12 11 10 10 11 11 11 11 10 8 8 10 9 8 8 8 7 7 8 9 9 9 9 9 9 9 9 8 8
4 3 3 2 1 1 2 1 3 4 3 6 6 4 4 4 4 2 2 4 3 3 2 0 3 5 6 6 7 6 5 4 4 5 5 6 5 6 3 5 5 5 5 5 5 6 6 5 5 5 7 12 11 12 13 13 12 12 11 11 11 12 12 11 11 10 9 12 9 10 9 9 8 8 8 8 9 9 9 9 9 9 9 8 8
4 3 4 3 2 2 2 1 1 2 2 1 2 1 3 2 1 1 1 1 2 4 3 3 2 5 7 8 7 5 6 5 4 5 5 5 6 5 6 5 5 5 6 6 5 5 5 5 5 5 5 8 12 12 13 11 11 11 12 12 10 10 12 11 12 12 11 12 11 11 11 11 10 9 8 8 9 9 9 9 9 9 9 9 8
3 4 5 4 4 3 3 2 2 2 3 1 3 0 3 4 2 2 3 3 2 2 2 3 2 2 5 7 7 3 4 4 5 4 5 6 5 5 6 4 6 6 5 4 5 5 5 5 5 5 5 5 7 11 13 13 12 11 12 12 12 10 10 12 12 13 12 11 13 12 12 12 12 11 10 9 9 9 9 9 9 8 8 9 9
3 4 5 5 5 6 5 4 3 3 3 4 3 5 3 3 2 2 2 2 2 1 2 3 2 2 2 3 5 5 1 3 4 4 5 5 5 6 5 6 7 6 4 5 5 5 5 5 5 5 5 5 5 5 7 9 11 13 12 13 14 13 11 12 13 13 13 11 13 13 14 12 12 11 11 10 10 9 9 9 9 8 8 8 9
3 4 5 5 5 6 5 4 5 4 5 6 5 5 3 3 2 2 3 2 2 2 3 4 3 2 3 2 2 3 5 4 2 2 3 3 3 5 5 6 7 5 4 4 4 5 5 5 6 6 6 6 5 6 6 8 9 12 13 14 15 15 15 13 14 14 14 11 14 13 14 14 13 12 11 11 10 10 9 10 10 9 9 8 8
3 4 5 5 5 6 5 6 5 5 5 6 6 7 6 5 5 4 2 4 2 3 2 0 1 3 1 2 1 1 4 2 4 5 3 3 1 2 2 3 4 4 2 4 5 5 4 4 6 6 6 6 6 6 6 6 11 12 13 14 14 14 16 15 15 15 14 13 12 15 15 15 14 13 12 12 12 11 11 11 11 10 9 9 9
3 4 5 5 4 5 6 6 6 5 5 6 6 6 6 5 5 5 5 4 5 3 4 3 2 1 2 2 1 0 2 1 3 4 3 3 1 2 3 3 3 3 3 4 3 3 3 4 5 5 6 6 6 6 6 7 7 7 10 14 15 15 16 17 17 16 16 16 14 16 16 16 14 13 13 13 13 13 12 12 12 11 10 10 9
4 4 4 4 5 5 5 6 6 6 6 6 5 5 6 6 5 5 6 6 4 5 4 4 4 3 3 2 1 1 1 1 1 3 4 3 0 3 1 1 3 3 3 4 4 4 3 4 4 5 5 6 5 6 6 6 7 6 6 9 16 16 15 16 18 17 17 17 16 17 17 18 15 13 13 14 14 14 14 14 14 13 12 11 10
3 4 4 4 5 4 6 6 6 6 4 6 7 6 5 5 4 6 5 5 5 7 6 4 2 5 5 2 0 1 1 1 1 2 2 2 3 4 3 2 3 1 2 4 5 4 4 4 5 6 6 5 6 6 6 7 9 9 12 12 15 16 16 16 15 17 17 18 17 17 17 19 17 15 14 14 15 15 15 16 15 14 13 12 12
3 3 3 4 5 5 5 6 6 5 6 6 6 4 5 5 5 5 5 5 6 6 5 5 4 3 4 5 5 3 1 2 3 2 3 4 4 1 3 4 4 2 3 2 1 3 4 4 5 5 5 5 5 6 6 7 7 8 9 14 15 16 17 17 17 16 15 16 18 18 19 19 18 16 16 16 16 16 16 17 17 16 15 14 13
4 3 3 3 4 5 5 6 6 5 5 6 5 5 6 5 6 6 6 6 5 4 5 4 4 3 3 5 4 4 3 2 2 2 2 2 3 2 6 4 3 1 1 1 3 3 4 5 5 6 5 6 6 7 7 7 7 7 10 14 16 16 17 18 18 17 16 15 13 17 18 20 20 20 18 18 18 17 16 17 17 18 16 15 14
4 4 4 4 4 5 6 6 6 5 5 5 5 6 5 5 5 5 5 6 5 5 5 4 4 3 3 2 4 3 3 2 4 5 3 2 5 5 4 6 7 3 5 5 4 4 4 4 5 5 5 5 6 7 7 8 7 7 10 16 17 17 18 18 18 17 17 16 13 16 18 19 20 20 21 20 20 19 18 18 17 18 18 17 16
2 4 3 3 4 4 6 5 5 5 5 6 6 6 5 5 5 5 5 5 4 5 5 4 3 4 4 3 3 3 2 1 2 2 2 2 4 4 5 5 6 8 3 4 5 6 5 4 5 5 5 5 6 6 7 8 10 11 14 15 17 17 18 18 18 18 17 18 17 18 19 18 18 20 21 21 21 19 19 20 20 18 18 19 17
1 3 3 3 4 5 5 5 6 6 5 5 5 5 5 5 5 5 5 4 4 4 4 4 4 3 4 3 3 2 3 2 2 2 1 2 3 4 4 4 5 4 4 5 6 5 5 5 4 4 5 5 5 6 6 7 9 14 12 14 16 17 18 18 19 19 19 19 19 17 19 21 18 20 22 23 21 21 20 20 20 19 18 19 19
2 3 2 3 4 5 5 5 5 5 5 5 5 5 5 5 5 5 5 5 4 4 4 4 4 4 4 2 1 2 2 3 2 2 2 2 3 4 4 3 5 6 5 5 4 4 5 6 5 4 4 5 4 5 6 6 6 10 13 10 15 15 17 17 18 19 19 19 20 19 18 19 21 20 21 21 22 22 22 20 18 17 16 16 18
5 5 4 4 3 4 5 5 4 4 4 5 5 4 5 5 5 5 5 3 4 5 4 4 5 4 3 4 4 3 2 2 3 3 3 2 2 3 4 3 4 6 4 3 2 5 3 3 3 4 5 5 5 5 5 6 6 8 12 10 10 14 16 17 18 18 19 19 19 19 18 17 17 18 17 20 20 19 18 17 16 15 14 14 15
6 4 5 5 6 6 5 6 4 4 4 4 5 5 5 5 5 5 4 3 4 4 4 4 5 6 6 4 5 5 4 3 2 3 3 4 3 3 3 6 5 4 4 3 5 6 8 4 5 5 5 6 6 6 5 4 6 11 12 9 7 13 14 16 17 18 18 19 18 18 18 17 17 17 15 16 20 18 17 17 17 17 15 14 13
4 5 4 6 6 6 5 5 5 4 4 5 5 5 5 5 4 4 4 2 4 5 4 4 5 5 4 4 4 5 5 5 4 4 3 4 4 3 4 4 6 8 4 6 5 6 5 5 3 5 5 4 4 4 4 3 3 5 7 7 7 8 14 17 18 18 19 20 21 21 21 18 17 17 16 15 20 18 18 17 19 19 18 16 14
5 4 6 5 6 6 6 6 5 5 5 5 5 4 4 4 4 4 4 2 3 3 1 3 3 3 4 4 3 4 5 5 5 5 5 4 3 4 4 4 4 6 6 5 6 5 2 2 3 3 3 4 4 3 4 3 3 3 5 6 6 6 10 15 18 18 18 19 19 20 21 21 20 19 18 16 19 20 20 18 19 19 19 18 16
5 5 6 7 6 6 6 5 5 4 5 4 5 5 5 4 3 3 3 2 3 2 1 0 1 1 2 3 3 4 4 4 4 5 5 5 5 4 4 4 4 5 4 6 8 4 6 4 5 5 3 5 5 5 4 5 5 6 5 5 6 7 11 14 16 16 17 18 19 20 20 21 22 20 19 18 18 20 20 19 19 19 19 18 17
5 6 6 6 6 6 6 6 5 5 5 5 5 5 4 4 2 3 3 3 2 2 1 1 2 2 3 3 3 4 4 4 4 5 5 4 5 4 5 4 4 5 6 5 9 3 2 4 3 4 4 6 6 6 6 6 6 6 6 6 6 10 13 10 14 15 16 18 18 18 18 19 19 19 19 18 17 19 20 20 19 19 19 19 18
7 8 7 7 7 7 6 6 5 5 5 5 5 5 5 4 3 3 2 2 2 2 3 3 3 4 4 4 4 4 4 4 5 5 5 5 4 4 4 5 5 5 5 6 8 11 3 6 6 6 8 8 7 7 7 6 6 7 6 5 7 7 7 6 11 16 17 18 18 18 18 19 20 19 18 18 19 20 20 20 20 20 20 19 19
7 7 7 7 7 6 6 4 5 4 4 5 4 5 5 4 4 3 4 4 4 3 1 3 3 3 3 4 5 5 4 4 4 4 5 5 5 4 3 3 4 4 5 6 9 11 6 4 5 4 5 7 8 6 9 8 8 6 4 5 5 5 5 5 5 11 16 17 17 18 19 19 19 18 19 19 20 19 20 21 21 21 20 20 20
7 8 7 6 6 6 5 5 5 4 4 5 5 5 4 3 3 3 4 4 4 4 3 3 3 2 3 3 4 5 4 5 5 5 4 4 4 4 4 3 3 4 3 4 6 7 12 6 5 4 5 5 5 6 6 9 10 8 8 6 5 4 4 4 5 6 13 15 17 18 19 19 19 19 19 19 19 20 20 20 21 21 21 21 20
6 7 7 7 6 5 4 4 4 4 4 5 4 5 5 4 2 3 4 4 4 3 3 1 1 2 4 4 5 5 4 5 5 4 4 4 3 4 4 4 4 4 3 3 4 6 8 10 6 7 5 4 4 6 7 5 7 7 8 8 7 6 4 5 5 5 8 13 15 16 17 17 17 17 18 19 21 21 21 22 22 22 22 21 21
8 5 6 7 6 5 4 3 3 3 4 4 4 4 5 5 4 4 4 4 4 3 2 1 2 2 3 4 5 5 5 6 6 5 4 4 4 4 5 5 4 5 4 3 3 4 4 8 7 6 6 7 6 5 5 7 7 6 5 8 8 8 7 4 6 5 6 9 11 13 14 14 16 17 18 19 19 20 21 21 21 21 21 21 21
6 7 5 5 6 6 5 4 4 3 4 4 4 3 3 4 4 4 4 3 2 2 2 3 3 3 4 4 5 4 5 6 6 5 5 6 5 5 5 5 5 5 4 4 4 4 5 8 8 5 5 5 6 7 6 6 6 6 4 5 6 7 8 5 4 4 4 5 9 12 14 15 16 18 18 18 18 19 20 20 22 22 22 22 22
7 7 8 6 7 6 5 5 5 5 5 4 4 4 4 3 3 3 1 0 2 3 3 3 4 4 4 5 5 5 4 5 5 5 5 6 5 5 6 6 5 5 5 5 5 5 6 7 7 8 5 6 6 6 6 6 6 7 8 6 6 5 5 6 5 4 2 2 3 3 6 9 12 14 14 15 18 19 19 19 20 21 22 22 21
9 7 6 7 5 6 6 6 6 6 6 5 4 3 4 4 3 1 2 3 4 4 4 5 5 5 5 5 6 6 6 6 6 6 6 6 5 6 6 6 5 5 6 6 6 6 6 7 7 7 7 4 5 8 5 6 6 6 8 8 8 4 3 4 7 4 2 3 4 6 6 7 9 10 13 16 16 17 18 19 21 22 22 21 21
9 8 8 8 6 5 6 6 5 5 5 5 4 4 3 2 1 3 3 4 5 5 5 5 5 6 6 6 6 7 7 7 6 6 6 6 5 6 5 5 5 6 6 6 6 6 6 6 7 7 6 6 4 5 5 6 7 6 5 6 7 7 6 3 4 6 3 3 5 4 4 5 6 8 8 11 14 16 18 18 20 20 20 19 19
7 8 7 7 7 5 4 5 6 5 6 5 4 3 2 2 1 3 4 5 5 6 6 6 6 6 6 6 6 7 7 10 12 11 9 8 6 6 5 5 6 6 6 6 6 6 6 8 8 6 7 7 5 5 5 6 5 7 5 4 7 7 7 8 6 4 5 5 4 4 5 5 5 6 6 7 10 14 14 16 13 17 20 22 21
7 6 6 5 6 7 7 6 6 5 5 3 4 5 3 2 3 3 3 4 5 6 6 7 7 6 7 7 6 11 12 13 13 13 13 13 13 10 7 5 6 6 7 7 7 6 7 10 8 7 9 9 7 6 7 6 5 6 7 6 7 7 7 6 6 5 4 5 6 7 6 4 6 6 7 9 8 10 9 10 11 15 18 19 23
7 6 6 6 5 6 7 7 6 5 4 3 5 4 4 2 1 2 3 5 5 5 6 7 8 7 7 7 7 8 10 10 10 12 13 14 14 14 15 15 11 8 7 8 8 7 8 9 8 9 9 11 11 7 7 6 6 6 6 6 6 7 8 8 8 4 2 5 6 5 7 4 7 7 7 8 8 8 9 11 15 18 20 23 22
7 7 7 6 6 6 6 7 6 5 4 4 4 3 2 3 3 3 3 4 5 5 6 7 7 6 7 7 6 5 6 8 8 9 11 13 14 15 15 15 15 16 14 10 9 8 7 9 10 10 9 10 11 9 8 5 7 6 6 6 7 6 8 8 7 7 1 6 6 4 7 3 6 7 7 7 7 7 9 10 12 14 16 17 18
7 8 8 7 7 6 7 7 6 4 4 4 2 1 2 3 5 4 4 4 5 6 7 7 7 7 6 7 6 5 5 11 11 9 8 9 11 14 15 15 15 15 14 15 15 11 7 10 11 12 11 9 11 10 7 8 6 9 7 7 7 7 6 6 6 6 2 3 4 5 7 3 5 6 9 6 6 6 7 9 12 14 16 16 18
8 8 9 9 7 6 6 6 6 5 4 3 2 1 3 5 6 4 4 5 6 6 7 7 7 7 7 7 7 7 6 6 7 8 8 9 9 9 9 8 8 11 13 15 16 17 15 10 10 13 10 9 13 9 8 7 8 9 8 9 7 7 7 6 4 6 5 4 6 4 5 4 5 6 8 6 6 7 7 9 12 13 15 15 15
9 10 11 9 6 6 5 5 5 4 2 1 0 3 5 6 7 5 5 5 5 6 7 7 8 8 8 7 8 8 7 7 6 9 10 9 9 8 9 9 9 9 9 9 9 8 9 8 10 12 11 10 12 10 10 7 9 9 9 9 8 6 3 4 6 5 6 5 6 4 7 2 4 5 8 6 5 4 3 6 10 12 13 14 15
8 9 7 8 7 6 5 5 4 3 1 1 3 4 6 7 8 5 5 6 6 6 7 7 7 6 6 7 8 10 11 11 11 12 12 10 11 12 12 12 11 10 10 9 12 12 11 10 10 10 10 10 12 11 11 11 10 10 9 10 4 4 6 9 12 5 6 3 7 7 6 6 3 6 4 1 3 3 2 2 6 11 12 13 15
9 9 8 6 7 7 6 5 5 3 2 3 4 4 6 8 6 6 6 6 6 7 7 7 7 7 7 9 10 10 10 10 11 12 12 13 12 12 12 13 12 12 12 8 11 14 16 18 19 19 19 18 17 17 16 16 13 10 9 10 12 7 7 11 11 8 10 4 5 9 5 8 4 5 3 2 1 2 2 2 2 7 12 13 14
9 8 7 7 6 6 6 6 5 4 4 4 4 4 6 7 6 6 6 7 7 8 8 7 6 7 9 15 14 12 10 10 11 11 11 10 13 14 15 16 17 16 14 9 8 8 13 16 17 18 20 20 19 20 20 19 18 13 12 16 11 5 11 9 11 8 8 5 6 9 6 7 3 4 3 0 1 0 2 2 3 5 9 11 15
9 7 7 6 5 3 4 5 6 5 4 3 3 5 6 7 6 5 6 6 7 7 8 10 9 9 10 8 14 15 15 15 16 15 16 14 16 15 17 17 18 18 14 12 14 12 11 12 12 12 13 16 15 12 12 17 18 15 13 14 8 11 14 12 10 8 9 10 6 13 10 4 4 4 6 2 3 1 2 3 4 5 6 6 9
Wind_Direction
189 199 182 204 189 150 67 18 272 210 151 156 171 178 190 195 206 231 244 186 135 101 114 122 193 246 215 245 223 251 217 184 192 198 201 201 212 222 217 207 208 214 207 197 191 187 184 186 187 186 181 185 180 179 171 182 170 192 204 172 200 49 25 102 125 119 113 109 107 109 105 102 102 99 96 94 91 87 84 84 85 83 82 80 80
198 195 179 197 171 73 64 235 222 298 71 165 150 183 198 216 209 223 250 255 199 152 146 153 178 232 242 245 226 222 240 195 195 204 205 206 214 222 224 211 210 209 216 201 198 193 188 192 193 192 190 190 186 184 181 192 179 195 213 184 197 200 10 15 135 127 121 119 115 116 116 113 108 105 102 101 98 91 89 85 86 85 85 87 85
165 143 172 35 26 71 183 218 145 48 321 70 115 123 154 216 226 221 230 248 249 193 181 199 175 189 224 231 245 211 218 227 209 199 206 211 202 213 233 222 210 210 212 207 204 203 193 195 193 195 193 197 198 193 193 199 203 201 219 208 192 235 358 330 146 131 131 128 126 125 123 122 114 110 108 106 105 102 98 93 91 90 88 88 90
94 32 348 46 69 239 105 25 50 61 119 300 162 159 188 225 235 230 230 223 264 263 246 227 234 199 199 227 233 232 210 207 214 205 216 219 210 207 210 229 218 211 212 210 204 209 200 197 195 200 195 194 198 194 198 200 207 212 219 223 193 237 284 320 150 137 145 137 133 139 134 128 123 117 112 108 106 107 104 103 99 98 95 90 89
65 106 181 191 180 130 60 91 153 192 171 177 200 148 143 148 214 249 240 287 320 305 314 252 277 267 188 218 230 234 226 197 213 201 207 217 220 211 204 207 218 216 215 214 206 206 208 201 199 204 200 196 204 191 200 202 206 217 229 232 208 239 263 281 256 144 150 144 138 146 143 135 129 125 119 113 110 109 109 108 104 99 99 96 90
67 94 227 205 79 69 182 209 175 146 143 189 217 5 64 89 67 31 355 53 321 316 357 337 313 286 276 224 211 236 219 216 210 212 200 212 221 225 215 192 192 207 218 222 212 206 210 206 201 204 201 202 201 196 203 205 198 212 223 233 219 229 247 260 285 158 153 158 152 154 148 145 138 132 126 123 120 116 113 111 112 106 100 100 98
150 183 240 36 98 189 219 227 159 136 159 204 200 145 24 181 137 166 305 30 13 336 340 328 319 318 313 295 259 205 206 217 206 217 207 205 194 226 230 208 185 188 213 218 225 214 208 209 207 206 206 201 203 206 210 208 198 205 215 228 212 216 240 252 281 182 156 170 164 157 155 154 147 139 135 129 126 124 120 119 118 117 109 104 103
147 172 153 146 171 212 219 141 168 99 195 210 205 183 196 219 197 168 184 271 334 337 40 355 342 327 325 335 302 251 205 206 213 214 214 180 205 206 207 207 199 196 200 207 219 228 213 208 212 210 204 206 207 214 216 214 205 210 211 218 224 207 232 248 262 221 175 173 170 161 162 159 157 148 143 138 134 132 129 128 125 122 121 114 110
188 170 143 198 216 227 141 134 131 111 328 263 209 180 201 218 222 185 165 131 290 310 338 13 343 329 333 335 326 256 220 200 213 223 178 200 210 205 197 203 203 204 201 196 206 217 224 212 211 213 210 206 213 215 219 218 216 209 217 206 217 213 215 236 246 254 201 176 175 169 164 165 163 160 151 146 142 139 137 134 133 126 126 124 117
142 142 140 214 233 225 85 92 139 164 293 302 242 151 191 209 228 179 160 163 236 247 265 307 341 332 330 328 320 290 241 204 198 198 197 214 212 212 212 205 197 205 198 196 199 202 206 215 211 213 215 212 214 215 219 223 222 220 217 218 211 219 220 223 239 246 218 192 189 174 171 164 174 173 162 155 151 146 144 141 138 138 132 132 130
51 72 112 158 201 134 84 106 154 145 164 220 207 171 158 186 210 174 167 181 173 198 210 258 350 324 299 303 306 290 265 227 184 185 199 215 217 224 213 212 203 205 208 204 202 199 199 191 197 203 217 216 213 213 219 224 227 228 220 227 211 219 223 223 231 235 223 207 194 178 176 169 178 185 175 166 159 154 152 147 146 142 140 136 136
35 40 82 81 78 77 129 147 72 93 123 2 337 336 195 172 178 232 81 25 187 199 197 167 174 248 283 285 281 285 258 237 197 199 203 206 216 203 216 208 201 207 209 211 202 205 200 189 193 203 205 219 217 213 216 222 227 232 231 226 231 222 229 228 230 235 237 209 198 183 182 172 171 186 186 179 169 164 158 154 153 150 147 144 142
46 54 48 69 76 83 110 130 78 69 69 93 134 176 83 92 125 122 140 167 191 197 195 143 169 234 262 278 291 268 232 217 209 210 211 216 208 203 216 201 212 211 213 192 201 203 203 196 197 191 201 200 219 219 217 220 223 225 230 228 229 231 226 231 231 236 242 208 212 193 185 178 174 182 190 189 179 171 164 162 159 157 155 151 148
66 63 60 56 65 65 65 55 54 53 55 43 57 96 136 133 138 134 138 126 145 147 198 158 134 214 44 352 322 311 237 184 222 225 214 214 208 209 199 211 217 213 194 196 203 201 207 205 195 198 196 198 206 206 217 223 224 220 220 228 227 229 237 225 225 229 236 215 207 205 184 184 179 185 191 193 185 180 169 170 164 164 162 159 157
55 71 71 62 72 73 62 57 48 49 59 53 53 58 69 81 97 147 131 132 136 197 227 234 139 159 102 60 309 351 324 360 23 325 266 240 217 222 214 217 227 212 200 201 199 204 205 200 202 200 199 200 198 204 212 219 221 218 218 221 226 229 234 230 226 230 231 221 202 207 190 186 184 186 193 196 190 184 177 174 171 170 171 169 165
49 73 77 68 70 77 78 70 64 61 74 66 49 48 45 52 53 50 100 95 95 68 25 263 83 140 116 173 204 128 327 336 341 316 329 241 164 283 303 299 319 304 257 219 214 211 212 201 207 202 206 205 201 202 210 214 219 216 217 218 221 224 231 234 231 230 227 226 204 205 200 185 192 198 199 197 194 187 181 177 176 177 176 177 170
47 61 86 83 74 77 78 76 74 61 70 71 60 50 45 40 39 50 45 74 76 84 47 36 47 19 102 128 115 49 212 289 325 280 355 29 27 187 186 217 222 212 228 255 256 235 225 221 217 211 211 208 207 210 210 213 214 213 215 218 218 219 223 231 236 233 230 228 200 204 198 196 193 202 202 201 196 190 183 179 181 178 180 181 176
62 66 76 91 78 76 84 82 76 69 69 76 72 63 49 47 28 47 44 28 90 76 56 9 36 54 46 26 28 140 158 249 60 293 4 340 41 94 98 240 232 205 224 245 245 237 216 231 212 222 216 213 213 216 217 217 211 207 207 213 213 215 218 224 233 237 236 229 216 210 204 201 201 198 203 205 200 192 185 180 181 179 182 183 181
66 77 84 90 93 80 83 82 79 76 77 79 69 64 57 51 35 50 43 41 53 74 53 357 30 41 13 12 127 184 203 262 273 294 324 277 293 11 8 16 25 341 225 228 234 236 227 223 225 225 219 213 213 215 213 221 224 225 218 216 210 212 215 218 225 236 237 233 228 210 205 202 201 193 196 205 205 199 187 181 181 182 182 183 184
76 56 76 99 102 87 86 82 81 78 76 75 85 86 74 50 50 54 48 44 52 72 71 30 61 356 360 32 26 1 313 286 287 282 299 302 298 306 149 33 343 287 234 251 260 254 258 232 233 229 225 222 216 217 219 219 217 220 224 221 214 212 213 216 219 226 236 241 233 223 207 204 201 195 194 200 205 206 198 185 183 182 182 182 185
63 77 59 77 87 99 92 87 84 84 89 88 80 75 76 75 60 54 56 46 44 57 70 47 45 42 11 12 19 25 338 266 278 276 252 280 285 318 325 315 299 275 129 29 304 270 236 233 225 224 218 216 210 212 215 216 213 215 224 221 218 214 214 216 217 219 224 232 239 233 217 205 203 199 195 202 202 201 204 200 187 183 182 181 184
37 61 74 72 86 87 86 86 90 91 88 92 91 77 72 70 72 77 74 68 43 58 71 54 47 34 51 48 50 9 15 20 38 6 322 284 282 298 301 321 324 323 332 327 318 284 257 232 225 229 224 218 215 215 212 214 213 212 220 219 216 215 216 216 216 216 219 224 226 233 232 216 211 203 197 201 202 202 203 203 200 188 181 181 181
14 57 78 84 94 99 102 98 90 86 81 74 72 79 73 75 72 65 62 70 60 64 64 57 54 43 38 53 63 61 52 53 356 3 337 324 340 321 335 329 317 309 319 331 313 296 273 247 232 227 223 222 220 216 214 220 221 222 221 218 216 215 216 216 216 215 217 220 224 227 230 229 218 208 202 200 203 203 204 204 201 197 188 181 180
94 115 88 87 113 104 106 106 104 100 94 99 91 84 79 75 61 59 58 62 61 62 63 52 47 48 33 22 31 22 38 37 336 324 340 312 317 306 303 318 299 264 310 316 288 277 279 271 249 242 235 231 221 213 217 220 225 224 223 223 217 217 217 218 218 218 217 219 223 225 227 228 224 211 209 200 201 204 205 206 205 201 195 187 180
188 151 182 147 132 115 108 104 99 102 121 107 107 93 85 73 70 62 53 43 36 43 42 29 38 32 356 350 3 16 335 314 312 308 305 301 296 300 289 299 288 299 304 315 299 298 270 262 263 248 257 254 246 222 218 218 224 223 222 227 220 218 218 219 221 220 219 220 223 225 226 227 224 219 212 205 203 204 205 204 203 200 197 195 185
177 190 179 150 118 127 119 112 113 120 113 108 105 101 92 84 71 61 56 45 38 39 24 4 12 4 10 358 359 342 295 283 289 292 289 298 296 287 305 286 270 284 288 284 308 315 295 284 264 272 270 263 262 250 214 223 226 221 220 226 220 219 219 219 220 222 222 223 225 226 226 226 227 224 218 208 203 199 202 196 192 193 196 197 193
181 180 155 138 140 131 131 128 131 130 122 99 99 93 86 78 71 70 62 65 56 53 33 16 6 357 356 355 334 336 323 308 273 276 275 273 274 287 293 303 294 266 280 258 275 241 264 273 263 265 263 266 268 268 249 226 232 217 207 216 224 216 217 220 220 220 221 222 225 230 230 227 225 225 223 198 197 195 195 191 185 186 193 198 202
172 144 166 146 146 138 131 132 141 137 111 102 94 91 89 88 83 71 78 31 53 36 18 23 7 357 347 345 355 320 320 318 320 301 287 276 283 296 302 295 290 292 286 286 257 260 242 266 287 253 252 272 284 288 307 279 246 266 232 225 223 212 214 221 219 217 217 220 220 221 225 227 225 225 221 204 194 193 194 190 185 184 189 193 199
170 162 153 159 150 142 137 142 145 131 109 104 104 97 93 88 85 68 69 90 98 92 56 46 332 336 349 344 327 307 309 315 313 311 306 303 281 268 258 268 291 288 296 277 273 277 274 189 302 300 302 295 288 311 303 290 278 241 211 219 222 225 213 216 223 219 217 221 223 225 223 221 224 221 218 207 195 193 193 192 188 187 189 191 191
169 161 155 156 154 143 139 150 152 125 116 116 106 107 99 90 102 101 122 124 72 83 137 168 251 247 329 334 339 319 301 315 303 298 301 299 297 295 279 268 261 276 284 290 292 271 278 238 237 268 306 307 319 305 284 284 271 263 249 239 228 224 218 214 219 219 219 219 222 224 224 223 222 220 217 210 199 194 193 194 192 191 191 191 189
161 153 157 156 153 156 151 155 147 131 125 120 122 111 107 105 107 61 80 87 79 3 305 24 330 25 9 325 317 306 306 304 304 302 298 296 291 294 296 289 277 261 275 279 289 265 262 298 293 294 297 297 296 289 283 273 271 256 248 230 231 227 220 217 216 216 217 219 223 224 226 226 226 226 223 217 206 200 197 197 194 192 191 189 187
176 165 164 162 163 160 169 149 136 131 121 126 120 119 114 105 116 92 98 97 80 21 340 359 358 3 -0 347 325 303 304 310 302 300 295 292 286 288 289 293 287 280 276 278 279 283 268 279 286 285 296 302 295 288 282 281 274 253 252 244 244 241 220 226 207 208 211 215 217 219 221 224 224 220 219 216 213 209 202 198 195 191 189 188 187
169 169 169 170 168 164 156 149 139 135 126 114 96 105 98 102 113 119 118 114 102 102 78 4 7 12 7 348 327 319 321 309 293 294 292 286 295 287 279 281 283 288 289 287 288 290 284 200 261 287 292 299 300 283 294 292 293 284 261 263 263 244 242 230 224 210 212 213 215 216 218 219 220 217 216 214 214 210 205 199 194 190 188 187 187
174 172 173 168 162 155 147 147 136 126 119 96 114 106 108 95 77 103 103 103 101 103 107 56 355 355 2 353 324 314 318 308 303 296 292 298 298 307 300 292 287 285 277 290 286 290 295 303 290 268 272 264 283 307 311 311 310 309 299 281 252 244 246 250 241 231 211 216 216 217 218 217 216 215 214 211 210 211 205 200 196 190 188 187 186
183 172 167 161 157 149 140 140 125 107 109 118 124 116 122 133 140 125 128 129 127 127 108 156 282 308 340 340 315 310 306 313 302 291 297 293 293 291 288 288 291 288 288 277 296 295 295 298 309 300 297 309 290 305 308 301 294 297 298 290 282 274 240 238 245 250 222 218 221 221 222 221 218 217 217 214 212 210 204 201 195 191 189 187 186
171 170 155 151 143 142 139 123 112 121 120 124 127 131 145 153 152 152 151 141 143 153 167 201 233 260 289 304 302 306 313 305 298 290 291 292 292 286 286 278 262 273 270 277 274 286 293 297 305 312 317 312 302 286 293 296 296 297 288 290 286 278 272 250 241 246 240 226 224 224 225 223 221 219 217 216 214 211 209 202 196 192 191 188 186
167 150 143 140 139 140 147 152 137 147 163 144 128 136 157 150 141 141 147 144 157 180 202 214 241 247 261 263 275 277 280 287 289 289 283 283 283 286 280 281 279 272 273 266 269 267 282 286 293 286 297 294 294 294 295 302 300 300 283 274 278 285 283 282 296 275 287 242 223 221 220 220 221 220 219 216 214 214 212 203 198 195 192 191 188
161 161 153 157 154 161 154 152 159 166 162 151 158 170 146 112 88 94 109 268 291 275 268 262 252 250 257 261 260 253 249 253 267 269 275 272 271 268 272 272 274 278 278 279 269 269 264 270 278 293 290 294 303 290 292 290 298 302 305 297 290 269 272 287 272 272 282 266 242 228 235 236 235 231 227 220 218 216 212 208 201 198 195 191 187
161 158 161 156 163 153 153 149 161 163 160 160 142 104 99 106 120 115 335 303 292 293 277 275 273 266 260 257 256 249 246 239 251 255 261 262 263 266 259 262 264 272 273 273 272 269 265 271 273 269 284 264 267 291 296 296 286 275 284 300 300 269 225 247 278 270 203 257 249 234 228 220 218 219 220 222 220 218 215 209 206 201 196 189 188
161 161 163 169 160 146 158 160 154 138 123 101 94 105 109 109 65 347 329 310 297 290 279 269 265 261 260 260 257 256 251 248 250 255 250 260 252 259 254 263 267 268 268 268 264 262 262 262 265 279 269 281 265 263 287 296 294 285 256 257 275 292 294 253 235 272 264 247 260 247 240 238 240 234 234 229 225 220 218 215 212 203 196 190 187
158 164 164 150 136 126 117 115 107 101 112 121 131 135 117 63 82 324 314 306 297 292 289 281 272 265 260 255 256 254 259 262 263 263 262 262 266 267 254 252 261 263 267 265 263 260 259 264 266 260 273 267 257 267 267 263 255 268 288 279 279 272 281 289 278 236 239 247 250 253 250 222 225 228 224 223 223 219 221 216 211 204 200 193 184
153 155 143 134 140 142 124 106 110 109 104 109 94 85 73 60 11 338 311 296 287 283 286 289 281 273 267 262 262 267 270 272 272 271 269 267 263 258 259 243 248 255 257 263 261 259 266 270 265 268 268 266 263 238 254 248 250 278 288 286 280 278 277 268 277 246 208 224 248 254 252 204 204 222 212 223 223 202 210 201 207 203 202 193 192
145 139 133 128 123 123 125 126 119 108 109 114 97 87 71 44 63 296 288 289 282 278 277 278 282 279 270 261 257 266 268 274 275 272 270 266 262 261 259 256 253 249 256 254 255 253 260 265 265 262 262 270 267 256 248 260 252 250 256 269 277 283 281 281 282 297 198 207 234 250 260 198 196 218 216 218 215 200 203 209 210 206 201 200 199
151 138 130 130 127 128 123 117 119 128 130 129 118 80 50 354 331 320 291 286 284 283 275 273 272 273 272 269 265 259 261 263 267 268 265 262 261 260 257 255 253 251 244 245 258 258 249 263 263 255 260 258 272 263 263 247 257 258 245 255 261 269 273 266 259 261 252 184 211 233 260 181 198 222 230 223 213 202 208 215 209 206 209 202 197
140 132 122 122 127 126 125 126 130 141 139 157 118 78 344 328 320 325 291 277 278 274 276 272 270 270 269 273 274 264 261 265 272 273 272 272 267 264 261 258 253 247 246 244 240 244 255 256 259 262 251 265 264 259 247 254 253 262 262 255 247 246 247 263 261 265 318 212 198 227 253 229 180 216 233 230 203 206 213 211 200 198 206 202 195
126 117 120 121 125 131 137 137 142 150 161 170 153 332 324 318 317 323 291 286 273 270 271 270 270 273 273 275 279 277 267 265 265 269 269 269 270 269 264 258 254 253 249 243 243 243 242 245 250 257 256 247 259 265 253 240 253 260 261 254 244 250 253 259 297 295 285 190 210 214 253 234 198 215 234 230 177 199 209 200 192 193 197 198 193
130 133 133 132 141 146 146 142 141 153 189 161 0 322 320 320 322 328 304 291 279 273 269 267 268 272 276 275 273 275 275 268 261 265 272 269 271 269 268 265 260 256 250 247 239 240 238 237 245 250 257 251 258 263 264 250 251 256 257 270 271 265 277 285 271 237 260 218 233 217 247 256 164 207 237 229 193 206 196 188 188 188 189 186 182
112 112 117 130 146 152 153 135 124 151 271 288 286 302 316 324 330 326 316 299 292 282 278 275 274 269 272 269 276 279 281 278 273 264 265 274 277 277 274 273 272 265 258 249 248 246 246 248 248 249 250 248 250 252 253 253 253 255 265 272 254 251 273 273 266 254 249 197 208 215 238 251 168 209 241 104 155 190 156 167 185 182 179 176 172
135 138 152 153 150 145 145 143 140 176 260 263 262 295 322 326 336 325 315 303 292 287 280 281 277 273 272 278 280 279 273 274 269 262 262 266 277 275 277 277 275 273 269 260 252 252 252 253 254 255 256 255 253 253 253 249 248 252 259 257 249 241 255 256 257 250 251 188 203 211 232 248 200 206 203 51 137 181 173 173 161 179 170 165 164
139 146 146 139 149 149 148 159 163 170 224 252 265 302 315 323 322 316 302 300 294 288 288 278 273 270 276 275 284 284 277 276 271 261 260 269 279 279 280 281 280 277 274 270 264 255 254 256 256 255 254 253 252 253 252 251 247 238 240 247 248 244 251 244 257 248 262 207 205 180 222 225 120 188 149 42 47 47 166 137 142 147 154 154 157
135 137 137 139 144 146 144 154 175 173 216 244 264 286 298 304 311 307 299 289 294 291 294 295 286 286 285 268 278 284 285 285 285 282 279 276 278 278 279 279 278 276 277 279 272 271 268 267 264 263 260 254 252 246 246 245 242 234 233 246 242 237 246 246 244 258 262 245 183 176 207 204 142 193 162 125 236 222 111 156 147 144 145 143 150